[[{"header":{"parameterUnit":"m.s-1","parameterCategory":1,"la1":30.2991,"la2":30.254,"lo1":-89.0895,"lo2":-89.0444,"dy":0.0017,"dx":0.0017,"nx":28,"ny":28,"refTime":"2025-11-11T09:00:00:Z","depth":0,"parameterNumber":2,"parameterNumberName":"U-component_of_WINDS"},"data":[0,0,0,0,0,0,0,0,0,0,0,0,0,0,0,0,0,0,0,0,0,0,0,0,0,0,0,0,0,0,0,0,0,0,0,0,0,0,0,0,0,0,0,0,0,0,0,0,0,0,0,0,0,0,0,0,0,0,3.4046,3.4047,0,3.4134,3.4135,3.4136,3.4106,3.4104,3.4103,3.4101,3.4187,3.419,3.4194,0,0,0,0,0,0,0,0,0,0,0,0,0,3.3847,3.3851,3.4046,3.4047,3.4048,3.4133,3.4135,3.4136,3.4107,3.4104,3.4102,3.41,3.4185,3.419,3.4195,0,0,0,0,0,0,0,0,0,0,0,0,0,3.3934,3.3852,3.4046,3.4044,3.4045,3.4133,3.4135,3.4136,3.4107,3.4104,3.4102,3.4099,3.4184,3.419,3.4196,3.429,0,0,3.4214,3.4217,0,0,0,0,0,0,0,0,3.3929,3.3941,3.4043,3.4044,3.4045,3.4106,3.4096,3.4188,3.4108,3.4083,3.4101,3.4097,3.4162,3.417,3.4192,3.4294,3.4297,3.4215,3.4218,3.4221,3.4223,0,0,0,0,0,0,0,3.3923,3.3937,3.4081,3.4045,3.4046,3.4037,3.4046,3.4113,3.4137,3.4085,3.4083,3.4094,3.4162,3.4186,3.4194,3.4299,3.4214,3.422,3.4224,3.4226,3.4476,3.4479,0,0,0,0,0,0,3.3917,3.3932,3.4078,3.4083,3.3979,3.4043,3.4053,3.409,3.4137,3.4141,3.4097,3.4093,3.4177,3.4187,3.4197,3.4306,3.4221,3.4227,3.423,3.4473,3.4477,3.448,0,0,0,0,0,0,3.3913,3.393,3.4074,3.4007,3.4025,3.4049,3.409,3.4093,3.4117,3.4145,3.4149,3.4118,3.4175,3.4188,3.4266,3.4308,3.4229,3.4235,3.4469,3.4474,3.4478,3.4527,0,0,0,0,0,0,3.3907,3.3929,3.3967,3.4009,3.4029,3.4144,3.4093,3.4097,3.4128,3.4124,3.4166,3.417,3.4174,3.4257,3.4272,3.4315,3.4239,3.4466,3.4472,3.4477,3.4522,3.4533,3.4542,0,0,0,0,0,3.39,3.3978,3.3969,3.3987,3.4077,3.4147,3.4158,3.4162,3.4132,3.4168,3.4186,3.4169,3.4302,3.4265,3.4282,3.4328,3.4463,3.447,3.4476,3.4517,3.4531,3.4542,0,0,0,0,0,0,3.394,3.3983,3.3974,3.4068,3.4104,3.4142,3.4188,3.4177,3.4222,3.4216,3.4218,3.4228,3.4306,3.4325,3.4283,3.4418,3.4378,3.4388,3.4403,3.4416,3.4426,3.4418,3.4245,0,0,0,0,0,3.396,3.4015,3.4049,3.4128,3.4147,3.4164,3.4195,3.4195,3.4232,3.4247,3.427,3.4305,3.4354,3.4387,3.4434,3.4525,3.4531,3.4565,3.4575,3.4583,3.4591,3.4636,3.4649,3.4502,3.4502,3.4502,0,0,3.4001,3.4032,3.4066,3.4137,3.4165,3.4218,3.4177,3.4238,3.4276,3.4256,3.4329,3.4347,3.4386,3.447,3.4508,3.4488,3.4633,3.4592,3.4598,3.4602,3.4644,3.4658,3.467,3.4507,3.4506,3.4505,0,0,3.4103,3.4134,3.42,3.4228,3.4271,3.4282,3.4298,3.4337,3.4348,3.4422,3.4406,3.4452,3.4539,3.4565,3.459,3.4698,3.4682,3.4714,3.4766,3.4809,3.4821,3.4831,3.4865,3.4878,3.4722,3.4722,3.4722,0,3.4148,3.423,3.4235,3.4296,3.4325,3.4309,3.4374,3.4401,3.4457,3.4476,3.4454,3.4559,3.4584,3.4671,3.4697,3.472,3.4735,3.4708,3.4819,3.4829,3.4839,3.4871,3.4885,3.4726,3.4725,3.4725,3.4725,0,3.4281,3.4338,3.4387,3.444,3.4475,3.4538,3.455,3.4584,3.4581,3.4593,3.4666,3.4696,3.4747,3.4768,3.4766,3.4854,3.4839,3.4819,3.4776,3.4856,3.4886,3.4899,3.473,3.4729,3.4728,3.4727,0,0,3.441,3.4464,3.4481,3.4503,3.4548,3.4591,3.4651,3.4701,3.4728,3.4767,3.4814,3.4886,3.4866,3.4894,3.4894,3.4933,3.5011,3.4906,3.4907,3.4921,3.5103,3.5116,3.5131,3.5002,3.5004,3.5006,3.5099,0,3.4512,3.4619,3.4623,3.4719,3.4769,3.4753,3.4804,3.4836,3.4848,3.4891,3.4904,3.4953,3.4925,3.4941,3.4979,3.4993,3.5046,3.4987,3.5042,3.5044,3.5029,3.5147,3.5162,3.5248,3.5111,3.5113,3.5115,0,3.4645,3.4687,3.4787,3.482,3.4841,3.4888,3.4932,3.4974,3.5008,3.5013,3.5044,3.5037,3.5095,3.5054,3.5131,3.509,3.5113,3.5123,3.5127,3.5129,3.5082,3.5149,3.5276,3.5288,3.5134,3.5133,3.5131,0,3.4723,3.4805,3.4874,3.4894,3.4936,3.4968,3.4987,3.5018,3.5046,3.5084,3.5102,3.5146,3.517,3.5203,3.5207,3.5177,3.5283,3.5243,3.5286,3.5286,3.5307,3.5305,3.5435,3.5328,3.5328,3.5328,3.5328,0,3.4834,3.4895,3.4909,3.4951,3.5017,3.5021,3.5086,3.5102,3.5129,3.5172,3.5162,3.5202,3.5208,3.5248,3.5252,3.5313,3.5324,3.5328,3.5328,3.5327,3.5326,3.5339,3.5332,3.5331,3.533,3.533,3.5329,0,3.4931,3.4944,3.5018,3.5051,3.506,3.5107,3.5134,3.5173,3.5184,3.5238,3.525,3.5267,3.5314,3.5322,3.5378,3.538,3.5451,3.5447,3.544,3.5438,3.5479,3.5473,3.562,3.5637,3.5522,3.5523,3.5524,0,3.5,3.5046,3.5083,3.5111,3.5131,3.5177,3.5206,3.521,3.524,3.5279,3.5312,3.5358,3.5395,3.547,3.5485,3.5526,3.552,3.5569,3.5526,3.5523,3.5516,3.5511,3.5514,3.5576,3.5577,3.5578,3.5579,0,3.5117,3.512,3.5162,3.5205,3.5239,3.5274,3.5306,3.5329,3.5337,3.5371,3.5418,3.5447,3.5502,3.5546,3.5587,3.5603,3.5591,3.5593,3.5604,3.5602,3.5594,3.5594,3.5457,3.5589,3.5588,3.5587,3.5586,3.5586,3.5199,3.5238,3.5269,3.5314,3.5339,3.5369,3.5405,3.542,3.546,3.5506,3.5506,3.5557,3.5586,3.5639,3.5658,3.5696,3.568,3.5698,3.5702,3.5705,3.5707,3.5591,3.5704,3.5704,3.5704,3.5703,3.5703,0,3.5312,3.5331,3.5374,3.5418,3.5453,3.544,3.5474,3.5503,3.5549,3.5577,3.5613,3.5665,3.5707,3.5726,3.5766,3.5793,3.5788,3.5803,3.5799,3.5802,3.5721,3.5705,3.5806,3.5806,3.5806,3.5806,3.5805,3.5805,3.5375,3.5438,3.5444,3.5518,3.5536,3.5586,3.5605,3.5631,3.5653,3.5712,3.5747,3.5759,3.5782,3.5824,3.586,3.5864,3.5878,3.5894,3.5896,3.5819,3.5808,3.5798,3.5783,3.5898,3.5899,3.5973,3.5974,3.5974]},{"header":{"parameterUnit":"m.s-1","parameterCategory":1,"la1":30.2991,"la2":30.254,"lo1":-89.0895,"lo2":-89.0444,"dy":0.0017,"dx":0.0017,"nx":28,"ny":28,"refTime":"2025-11-11T09:00:00:Z","depth":0,"parameterNumber":3,"parameterNumberName":"V-component_of_WINDS"},"data":[0,0,0,0,0,0,0,0,0,0,0,0,0,0,0,0,0,0,0,0,0,0,0,0,0,0,0,0,0,0,0,0,0,0,0,0,0,0,0,0,0,0,0,0,0,0,0,0,0,0,0,0,0,0,0,0,0,0,5.2993,5.2994,0,5.3115,5.3116,5.3118,5.3066,5.3063,5.306,5.3057,5.3177,5.3183,5.3189,0,0,0,0,0,0,0,0,0,0,0,0,0,5.2706,5.2711,5.2992,5.2994,5.2996,5.3115,5.3116,5.3118,5.3066,5.3063,5.3059,5.3056,5.3175,5.3182,5.319,0,0,0,0,0,0,0,0,0,0,0,0,0,5.2829,5.2713,5.2992,5.2984,5.2985,5.3114,5.3116,5.3118,5.3067,5.3063,5.3058,5.3054,5.3173,5.3182,5.3191,5.3334,0,0,5.3218,5.3222,0,0,0,0,0,0,0,0,5.2822,5.284,5.2984,5.2985,5.2986,5.3071,5.3059,5.319,5.3068,5.3036,5.3057,5.3052,5.3145,5.3156,5.3189,5.3339,5.3344,5.3219,5.3224,5.3228,5.323,0,0,0,0,0,0,0,5.2814,5.2834,5.3041,5.2986,5.2987,5.2972,5.2984,5.3084,5.3113,5.3038,5.3035,5.305,5.3145,5.318,5.3191,5.3346,5.3218,5.3226,5.3232,5.3235,5.3614,5.3618,0,0,0,0,0,0,5.2806,5.2827,5.3037,5.3044,5.2892,5.298,5.2995,5.3048,5.3112,5.3118,5.3054,5.3047,5.3167,5.3181,5.3195,5.3363,5.3228,5.3236,5.3241,5.3609,5.3615,5.362,0,0,0,0,0,0,5.28,5.2825,5.3032,5.2935,5.296,5.299,5.305,5.3053,5.3088,5.3124,5.3128,5.3085,5.3164,5.3182,5.3298,5.3366,5.324,5.3248,5.3604,5.3611,5.3617,5.3702,0,0,0,0,0,0,5.2792,5.2824,5.2881,5.2937,5.2966,5.3136,5.3055,5.3058,5.3104,5.3097,5.3155,5.316,5.3162,5.3285,5.3307,5.3376,5.3255,5.3598,5.3607,5.3615,5.3693,5.3711,5.3726,0,0,0,0,0,5.2782,5.29,5.2884,5.2909,5.3038,5.3141,5.3157,5.3158,5.311,5.3165,5.3188,5.3158,5.3356,5.3298,5.3322,5.3394,5.3593,5.3604,5.3614,5.3685,5.3707,5.3725,0,0,0,0,0,0,5.285,5.2907,5.289,5.303,5.3081,5.3132,5.3202,5.3182,5.3247,5.3237,5.3234,5.3248,5.3367,5.3392,5.3327,5.3533,5.3467,5.3482,5.3512,5.3533,5.3549,5.354,5.3263,0,0,0,0,0,5.2882,5.2962,5.3007,5.3126,5.3152,5.3173,5.3218,5.3214,5.3266,5.3287,5.3318,5.3368,5.344,5.3488,5.3558,5.3696,5.3705,5.3758,5.3774,5.3787,5.3801,5.387,5.3893,5.3655,5.3655,5.3654,0,0,5.2947,5.2988,5.3039,5.314,5.3179,5.3259,5.3191,5.3281,5.3339,5.33,5.3411,5.3435,5.349,5.3617,5.3674,5.3641,5.3868,5.3801,5.3811,5.3817,5.3883,5.3906,5.3926,5.3662,5.3661,5.3659,0,0,5.3107,5.3148,5.3249,5.3289,5.3349,5.3361,5.3385,5.3438,5.3453,5.3564,5.3535,5.3603,5.373,5.3769,5.3805,5.3974,5.3947,5.3997,5.4082,5.415,5.4169,5.4186,5.4242,5.4262,5.401,5.401,5.4011,0,5.318,5.3303,5.3303,5.3394,5.3436,5.3405,5.3505,5.3543,5.3622,5.3651,5.3614,5.3769,5.3804,5.3936,5.3977,5.4009,5.4033,5.399,5.4167,5.4183,5.4199,5.4252,5.4274,5.4016,5.4015,5.4015,5.4014,0,5.3387,5.3472,5.3546,5.3623,5.3674,5.3769,5.378,5.3832,5.3823,5.3838,5.3948,5.3989,5.4063,5.4095,5.4088,5.4225,5.4203,5.4167,5.4099,5.4227,5.4276,5.4297,5.4023,5.4021,5.402,5.4019,0,0,5.3595,5.3668,5.3695,5.3727,5.3789,5.3853,5.3944,5.4017,5.4059,5.4114,5.4187,5.4293,5.4258,5.4299,5.4295,5.4356,5.4481,5.4311,5.4312,5.4338,5.463,5.4654,5.4679,5.4464,5.4468,5.4471,5.4624,0,5.3757,5.3918,5.3919,5.4066,5.4141,5.411,5.4189,5.4233,5.4248,5.4312,5.4328,5.4402,5.4353,5.4376,5.4435,5.4454,5.4539,5.4443,5.4528,5.4531,5.4513,5.4705,5.4733,5.4875,5.4644,5.4647,5.4649,0,5.3968,5.4028,5.4183,5.4228,5.426,5.4331,5.4395,5.4458,5.4506,5.4512,5.4556,5.4542,5.463,5.4561,5.468,5.4614,5.4649,5.4663,5.4668,5.4674,5.4597,5.4713,5.4921,5.4941,5.4681,5.4678,5.4676,0,5.4098,5.4219,5.4325,5.4354,5.4412,5.4461,5.4487,5.453,5.4573,5.4628,5.4655,5.472,5.4755,5.4804,5.4806,5.4756,5.4924,5.4857,5.4929,5.4929,5.4964,5.4962,5.5177,5.4992,5.4991,5.4991,5.4991,0,5.4277,5.4372,5.4384,5.445,5.4553,5.4551,5.4653,5.4674,5.4712,5.4778,5.4755,5.4817,5.4817,5.4879,5.4881,5.4976,5.4993,5.4998,5.4997,5.4999,5.4998,5.502,5.5009,5.4997,5.4995,5.4994,5.4993,0,5.4441,5.4454,5.4567,5.4611,5.4624,5.4698,5.4734,5.4794,5.4806,5.489,5.4909,5.4927,5.4999,5.5006,5.5089,5.509,5.5204,5.5194,5.5188,5.5185,5.5256,5.5248,5.5491,5.5521,5.5319,5.5321,5.5322,0,5.4553,5.4625,5.4676,5.4719,5.4747,5.4818,5.486,5.486,5.4904,5.4961,5.5013,5.5082,5.5138,5.5252,5.5271,5.5333,5.5322,5.5403,5.5331,5.5329,5.5319,5.5313,5.5318,5.5416,5.5419,5.542,5.5422,0,5.475,5.4751,5.4814,5.4879,5.493,5.498,5.5027,5.5063,5.5068,5.5118,5.5191,5.5234,5.5317,5.5385,5.5445,5.5468,5.5444,5.5444,5.5464,5.5465,5.5457,5.5459,5.5223,5.5439,5.5437,5.5436,5.5435,5.5434,5.4889,5.4949,5.4993,5.5063,5.5098,5.5141,5.5198,5.5217,5.5278,5.5346,5.5342,5.5421,5.5461,5.554,5.5567,5.5626,5.5599,5.5628,5.5635,5.5641,5.5647,5.545,5.5638,5.5637,5.5637,5.5636,5.5636,0,5.5081,5.5107,5.5171,5.5236,5.529,5.5264,5.5313,5.5359,5.5429,5.547,5.5524,5.5605,5.5669,5.5692,5.5753,5.5796,5.5786,5.5812,5.5807,5.5812,5.567,5.5645,5.5818,5.5818,5.5818,5.5818,5.5818,5.5818,5.5187,5.5286,5.5292,5.5406,5.5431,5.5509,5.5539,5.5577,5.5609,5.57,5.5754,5.5768,5.58,5.5863,5.5919,5.5924,5.5946,5.5975,5.5975,5.5841,5.5823,5.5805,5.5782,5.5981,5.5981,5.6112,5.6113,5.6114]}]]